KAITUO 1B
1 40912U 15049P   18012.77546542  .00000941  00000-0  48995-4 0  9990
2 40912  97.4513  22.3436 0014899 186.6493 259.0864 15.18365388128086
TIANWANG 1C (TW-1C)
1 40926U 15051B   18013.49882623  .00006543  00000-0  13288-3 0  9991
2 40926  97.2048  56.6570 0012307 118.7889 350.9951 15.46596755129385
TIANWANG 1B (TW-1B)
1 40927U 15051C   18013.53423631  .00006470  00000-0  13679-3 0  9990
2 40927  97.2143  56.6094 0011916 128.8167   9.2591 15.45427438129316
TIANWANG 1A (TW-1A)
1 40928U 15051D   18013.39037909  .00002848  00000-0  78746-4 0  9996
2 40928  97.2045  50.3676 0012633 152.4499 333.4837 15.37774553128984
LAPAN A2
1 40931U 15052B   18012.63738486  .00000477  00000-0 -22800-4 0  9992
2 40931   5.9983 179.3404 0013741 330.1961  29.7364 14.76559813123972
LQSAT
1 40958U 15057A   18013.42404072  .00000014  00000-0  98988-5 0  9992
2 40958  97.9583  89.8426 0019508 110.9954 249.3341 14.73011386122069
CHUBUSAT 2
1 41338U 16012B   18011.99469837  .00000304  00000-0  17091-4 0  9994
2 41338  31.0020 225.9519 0013980 326.0747  33.8993 14.99902897104367
CHUBUSAT 3
1 41339U 16012C   18011.96170669  .00000279  00000-0  15023-4 0  9998
2 41339  31.0085 224.9821 0013755 332.7300  27.2635 15.00095633104345
OUFTI-1
1 41458U 16025C   18013.06431354  .00001546  00000-0  85830-4 0  9999
2 41458  98.1598  67.5001 0169651 308.0242  50.5772 15.04150035 94115
E-STAR-2
1 41459U 16025D   18012.91247615  .00000387  00000-0  25268-4 0  9999
2 41459  98.1574  67.2373 0170857 309.0121  49.5995 15.03911523 94083
AAUSAT 4
1 41460U 16025E   18013.09524404  .00001951  00000-0  10637-3 0  9996
2 41460  98.1521  67.7124 0163017 305.3059  53.3034 15.05152099 94157
NUSAT 1
1 41557U 16033B   18013.17089093  .00001282  00000-0  49756-4 0  9993
2 41557  97.4484  97.6245 0013568 352.5810   7.5227 15.27907928 90484
BEESAT 4
1 41619U 16040W   18013.22767483  .00001396  00000-0  64736-4 0  9993
2 41619  97.4370  78.3893 0013083  58.3172 301.9338 15.21655970 74528
PRATHAM
1 41783U 16059A   18013.14809919  .00000054  00000-0  19936-4 0  9999
2 41783  98.1406  77.0400 0032852 220.6098 139.2653 14.62893813 69298
ALSAT 1N
1 41789U 16059G   18013.44051816  .00000053  00000-0  19212-4 0  9999
2 41789  98.1407  78.2403 0027502 212.1328 147.8202 14.64118532 69373
NAYIF 1
1 42017U 17008BX  18012.89766613 +.00001529 +00000-0 +66214-4 0  9998
2 42017 097.4698 078.7578 0006087 192.0765 168.0327 15.23937787050411
LILACSAT-1
1 42725U 98067ME  18013.21935709  .00015024  00000-0  16960-3 0  9996
2 42725  51.6386  64.3361 0005746  13.4077 346.7069 15.62711590 36245
MAX VALIER SAT
1 42778U 17036P   18013.13136132  .00000979  00000-0  47283-4 0  9991
2 42778  97.4259  75.2661 0011309 249.9415 110.0603 15.20972173 30934
